Change the Weather History Date:

Thursday, February 20, 2014

  Actual Average Record
Temperature  
Mean Temperature 56 °F -  
Max Temperature 69 °F 46 °F 69 °F (1997)
Min Temperature 43 °F 28 °F -13 °F (2015)
Degree Days  
Heating Degree Days 9    
Growing Degree Days 6 (Base 50)    
Moisture  
Dew Point 51 °F    
Average Humidity 78    
Maximum Humidity 94    
Minimum Humidity 56    
Precipitation  
Precipitation 0.42 in - - ()
Sea Level Pressure  
Sea Level Pressure 29.69 in    
Wind  
Wind Speed 15 mph (South)    
Max Wind Speed 32 mph    
Max Gust Speed 40 mph    
Visibility 10 miles    
Events Rain , Thunderstorm    
Averages and records for this station are not official NWS values.
T = Trace of Precipitation, MM = Missing Value Source: NWS Daily Summary

Daily Weather History Graph

Daily Weather History Graph

Search for Another Location

Airport or City:

Trip Planner

Search our weather history database for the weather conditions in past years. The results will help you decide how hot, cold, wet, or windy it might be!

Date:

Astronomy

Feb. 20, 2014 Rise Set
Actual Time 7:27 AM EST 6:28 PM EST
Civil Twilight 7:00 AM EST 6:54 PM EST
Nautical Twilight 6:30 AM EST 7:25 PM EST
Astronomical Twilight 5:59 AM EST 7:55 PM EST
Moon No Moon Rise 10:16 AM EST (2/20)
Length of Visible Light 11h 53m
Length of Day
11h 00m
Waning Gibbous, 71% of the Moon is Illuminated
Feb 20
Waning Gibbous
Feb 22
Last Quarter
Mar 1
New
Mar 8
First Quarter
Mar 16
Full

Hourly Weather History & Observations

Time (EST) Temp. Windchill Dew Point Humidity Pressure Visibility Wind Dir Wind Speed Gust Speed Precip Events Conditions
12:58 AM 44.1 °F 40.1 °F 33.3 °F 66% 29.96 in 10.0 mi East 6.9 mph - N/A   Mostly Cloudy
1:58 AM 43.9 °F 38.3 °F 33.3 °F 66% 29.92 in 10.0 mi East 10.4 mph - N/A   Scattered Clouds
2:58 AM 43.5 °F 38.3 °F 33.4 °F 68% 29.90 in 10.0 mi East 9.2 mph - N/A   Partly Cloudy
3:58 AM 44.6 °F 40.2 °F 34.3 °F 67% 29.88 in 10.0 mi East 8.1 mph - N/A   Mostly Cloudy
4:58 AM 44.6 °F 40.7 °F 35.1 °F 69% 29.85 in 10.0 mi East 6.9 mph - N/A   Overcast
5:58 AM 45.0 °F 42.6 °F 36.5 °F 72% 29.83 in 10.0 mi ESE 4.6 mph - N/A   Overcast
6:58 AM 52.5 °F - 45.9 °F 78% 29.82 in 10.0 mi SSE 10.4 mph - N/A   Overcast
7:58 AM 55.2 °F - 49.8 °F 82% 29.82 in 10.0 mi South 11.5 mph - N/A   Overcast
8:43 AM 57.2 °F - 53.6 °F 88% 29.82 in 10.0 mi South 13.8 mph - N/A   Overcast
8:58 AM 57.9 °F - 53.4 °F 85% 29.82 in 10.0 mi South 16.1 mph 20.7 mph N/A   Overcast
9:18 AM 59.0 °F - 53.6 °F 82% 29.81 in 10.0 mi South 13.8 mph - N/A   Mostly Cloudy
9:53 AM 62.6 °F - 57.2 °F 82% 29.80 in 10.0 mi South 17.3 mph 25.3 mph N/A   Overcast
9:58 AM 61.9 °F - 56.7 °F 83% 29.81 in 10.0 mi South 20.7 mph 25.3 mph N/A   Overcast
10:58 AM 64.2 °F - 57.0 °F 77% 29.78 in 10.0 mi South 18.4 mph 25.3 mph N/A   Overcast
11:33 AM 66.2 °F - 57.2 °F 73% 29.77 in 10.0 mi South 20.7 mph 34.5 mph N/A   Overcast
11:38 AM 66.2 °F - 57.2 °F 73% 29.76 in 10.0 mi South 20.7 mph 34.5 mph N/A   Overcast
11:58 AM 65.8 °F - 56.5 °F 72% 29.76 in 10.0 mi South 20.7 mph 34.5 mph N/A   Overcast
12:58 PM 66.9 °F - 56.1 °F 68% 29.73 in 10.0 mi South 21.9 mph 40.3 mph N/A   Overcast
1:58 PM 67.8 °F - 55.8 °F 65% 29.69 in 10.0 mi South 20.7 mph 34.5 mph N/A   Mostly Cloudy
2:58 PM 68.4 °F - 55.8 °F 64% 29.66 in 10.0 mi South 19.6 mph 32.2 mph N/A   Mostly Cloudy
3:42 PM 69.8 °F - 55.4 °F 60% 29.62 in 10.0 mi South 24.2 mph 36.8 mph N/A Rain Light Rain
3:49 PM 69.8 °F - 55.4 °F 60% 29.63 in 10.0 mi South 20.7 mph 36.8 mph N/A   Overcast
3:58 PM 69.3 °F - 55.4 °F 61% 29.62 in 10.0 mi South 21.9 mph 34.5 mph 0.00 in   Overcast
4:58 PM 69.8 °F - 55.6 °F 61% 29.62 in 10.0 mi South 16.1 mph 27.6 mph N/A   Mostly Cloudy
5:58 PM 69.8 °F - 54.1 °F 57% 29.60 in 10.0 mi South 15.0 mph 26.5 mph N/A   Overcast
6:04 PM 69.8 °F - 53.6 °F 56% 29.59 in 10.0 mi South 19.6 mph 27.6 mph N/A Rain , Thunderstorm Light Rain
6:56 PM 62.6 °F - 59.0 °F 88% 29.63 in 7.0 mi SSE 19.6 mph 32.2 mph N/A Rain , Thunderstorm Light Thunderstorms and Rain
6:58 PM 63.1 °F - 58.8 °F 86% 29.62 in 7.0 mi SSE 18.4 mph 32.2 mph 0.10 in Rain , Thunderstorm Light Thunderstorms and Rain
7:19 PM 62.6 °F - 60.8 °F 94% 29.62 in 4.0 mi South 11.5 mph - N/A Rain , Thunderstorm Thunderstorms and Rain
7:48 PM 62.6 °F - 60.8 °F 94% 29.61 in 8.0 mi South 13.8 mph - N/A Rain , Thunderstorm Light Rain
7:58 PM 61.9 °F - 59.9 °F 93% 29.59 in 8.0 mi SSE 16.1 mph - 0.23 in Rain , Thunderstorm Light Rain
8:29 PM 62.6 °F - 59.0 °F 88% 29.57 in 10.0 mi SSE 12.7 mph 25.3 mph N/A   Mostly Cloudy
8:37 PM 62.6 °F - 59.0 °F 88% 29.56 in 10.0 mi SSE 15.0 mph - N/A Rain Light Rain
8:58 PM 62.2 °F - 59.4 °F 90% 29.52 in 10.0 mi South 16.1 mph 26.5 mph 0.02 in Rain Light Rain
9:04 PM 62.6 °F - 59.0 °F 88% 29.54 in 10.0 mi South 21.9 mph 32.2 mph N/A   Partly Cloudy
9:58 PM 61.7 °F - 57.2 °F 85% 29.55 in 10.0 mi South 19.6 mph 29.9 mph 0.00 in   Overcast
10:04 PM 62.6 °F - 57.2 °F 82% 29.55 in 10.0 mi South 19.6 mph 29.9 mph N/A Rain Light Rain
10:15 PM 62.6 °F - 57.2 °F 82% 29.54 in 10.0 mi South 24.2 mph 34.5 mph N/A   Overcast
10:24 PM 62.6 °F - 57.2 °F 82% 29.56 in 10.0 mi SW 23.0 mph 34.5 mph N/A   Overcast
10:28 PM 60.8 °F - 55.4 °F 82% 29.59 in 10.0 mi West 32.2 mph 40.3 mph N/A   Overcast
10:29 PM 60.8 °F - 53.6 °F 77% 29.61 in 8.0 mi West 31.1 mph 40.3 mph N/A Rain Rain
10:44 PM 51.8 °F - 50.0 °F 94% 29.63 in 7.0 mi West 23.0 mph 36.8 mph N/A Rain Rain
10:54 PM 50.0 °F - 46.4 °F 87% 29.64 in 8.0 mi West 19.6 mph 32.2 mph N/A Rain Rain
10:58 PM 50.5 °F - 46.8 °F 87% 29.65 in 9.0 mi West 17.3 mph 32.2 mph 0.04 in Rain Light Rain
11:22 PM 48.2 °F - 42.8 °F 82% 29.65 in 10.0 mi West 18.4 mph 26.5 mph N/A   Overcast
11:25 PM 48.2 °F - 42.8 °F 82% 29.65 in 10.0 mi West 12.7 mph 24.2 mph N/A   Light Drizzle
11:37 PM 48.2 °F - 42.8 °F 82% 29.68 in 10.0 mi West 15.0 mph 21.9 mph N/A   Overcast
11:47 PM 46.4 °F 40.7 °F 42.8 °F 87% 29.69 in 10.0 mi West 12.7 mph - N/A   Overcast
11:54 PM 46.4 °F 39.0 °F 41.0 °F 81% 29.69 in 10.0 mi West 19.6 mph 26.5 mph N/A Rain Light Rain
11:58 PM 46.4 °F 38.7 °F 40.6 °F 80% 29.71 in 10.0 mi West 20.7 mph 26.5 mph 0.03 in Rain Light Rain